[Date Prev][Date Next][Thread Prev][Thread Next] - [Date Index][Thread Index][Author Index]

2 Line ISS Keps 7-1



ISS
1 25544U 98067A   04183.43291667  .00015511  00000-0  13357-3 0  1159
2 25544  51.6320 253.0893 0005499 311.5176 224.7521 15.69493748320554

----
Via the sarex mailing list at AMSAT.ORG courtesy of AMSAT-NA.
To unsubscribe, send "unsubscribe sarex" to Majordomo@amsat.org



AMSAT Top AMSAT Home